Location: Unspecified
(0.0000°N, 0.0000°E)
Time: 14:47:52
(UTC+00:00)

LightSail 2 - Pass Details

Date: 19 August 2019
Orbit: 701 x 732 km, 24.0° (Epoch: 21 August)

Event Time Altitude Azimuth Distance (km) Brightness Sun altitude
Rises 18:23:38 0° 272° (W) 3,094 10.7 -4.9°
Reaches altitude 10° 18:26:35 10° 287° (WNW) 2,168 9.5 -5.6°
Maximum altitude 18:30:28 22° 337° (NNW) 1,527 7.4 -6.5°
Drops below altitude 10° 18:34:19 10° 27° (NNE) 2,152 7.5 -7.5°
Sets 18:37:15 0° 42° (NE) 3,065 8.1 -8.2°
